Regional Weather Roundup
Issued by NWS Pendleton, OR

Current Version | Previous Version | Text Only | Print | Product List | Glossary On
Versions: 1 2 3 4 5 6 7 8 9 10 11 12 13 14 15 16 17 18 19 20 21 22 23 24 25 26 27 28 29 30 31 32 33 34 35 36 37 38 39 40 41 42 43 44 45 46 47 48 49 50
810
ASUS46 KPDT 240410
RWRPDT
PENDLETON REGIONAL WEATHER ROUNDUP
NATIONAL WEATHER SERVICE PENDLETON OREGON
900 PM PDT SUN APR 23 2017

NOTE: FAIR INDICATES FEW OR NO CLOUDS BELOW 12,000 FEET WITH NO
SIGNIFICANT WEATHER AND/OR OBSTRUCTIONS TO VISIBILITY.

# INDICATES UNOFFICIAL STATION AND DATA

WAZ520-240510-
EAST SLOPES OF WASHINGTON CASCADES

CITY            SKY/WX      TMP DP  RH  WIND    PRES   REMARKS
#CLE ELUM HS    N/A         43  40  89  CALM    29.75S
#CLE ELUM LAKE  N/A         40  35  82  CALM    29.76F
#GLENWOOD       N/A         42  39  89  S2      29.81F
#MANASTASH CYN  N/A         46  46  100 CALM    29.75S
#NELSON 3SW     N/A         36  35  96  CALM    30.00S
#NILE           N/A         44  36  73  CALM    29.04R
#TEANAWAY 4NE   N/A         42  41  96  CALM    N/A
#TROUT LAKE 1NE N/A         41  39  93  SW1     29.83F
#TROUT LAKE 1E  N/A         41  39  93  CALM    29.84F
$$

WAZ521-240510-
SIMCOE HIGHLANDS

CITY            SKY/WX      TMP DP  RH  WIND    PRES   REMARKS
#BICKLETON HS   N/A         42  36  79  SW12    29.82R WCI 35
#CENTERVILLE 1SWN/A         44  38  79  NW8     29.79S
#GOLDENDALE 1NE N/A         46  30  53  W2      N/A
#GOLDENDALE 4W  N/A         45  18  33  NW5     29.86F
#GOODNOE HILLS  N/A         48  38  68  W10     N/A
#LYLE 6NE       N/A         45  41  86  S5      29.79F
#PITT 4SE       N/A         41  38  89  W6      29.84F
$$

WAZ026-240510-
KITTITAS VALLEY

CITY            SKY/WX      TMP DP  RH  WIND    PRES   REMARKS
ELLENSBURG AP   PTCLDY      46  40  79  NW9     29.76S
#ELLENSBURG CWU N/A         44  39  82  NW9     29.70S
#ELLENSBURG 3NE N/A         44  40  86  N1      27.85S
#ELLENSBURG 1E  N/A         45  N/A N/A CALM    N/A
#ELLENSBURG 13S N/A         50  39  66  NE2     N/A
#KITTITAS 4N    N/A         44  38  79  W8      29.78R
#KITTITAS 3S    N/A         45  40  82  W7      29.75S
#THORP 6N       N/A         41  38  89  N5      29.80S
$$

WAZ027-240510-
YAKIMA VALLEY

CITY            SKY/WX      TMP DP  RH  WIND    PRES   REMARKS
YAKIMA AIRPORT  CLOUDY      53  37  54  SW7     29.76S
YAKIMA-VAGABOND MOCLDY      49  37  63  S7      29.74S
#DONALD 2NE     N/A         50  23  34  SW5     28.63F
#GRANDVIEW      N/A         52  36  54  W1      29.80S
#MABTON         N/A         53  41  64  W6      29.78F
#MOXEE 2E       N/A         49   0  13  E3      29.73R
#NACHES 2SW     N/A         49  37  63  W2      29.75F
#TERRACE HTS    N/A         49  39  68  CALM    29.73S
#TOPPENISH      N/A         53  38  57  CALM    29.69F
#WEST VALLEY    N/A         51  38  61  CALM    29.74S
#W YAKIMA       N/A         50  36  58  W1      29.75S
#WHITE SWAN 5E  N/A         51  39  63  W10     29.77F
#WILEY CITY 3W  N/A         48  34  58  CALM    29.73S
$$

WAZ028-240510-
LOWER COLUMBIA BASIN...WASHINGTON

CITY            SKY/WX      TMP DP  RH  WIND    PRES   REMARKS
PASCO           CLOUDY      55  39  55  W3      29.80S
PROSSER AWOS    N/A         52  39  61  SW5     29.82F
RICHLAND AWOS   PTCLDY      56  39  53  SW8     29.80S
#BENTON CITY    N/A         52  41  66  CALM    29.70R
#CONNELL 5N     N/A         50  41  71  SW6     29.76S
#CONNELL 5NW    N/A         51  40  66  SW7     29.72R
#ELTOPIA 6NW    N/A         54  41  61  S7G24   28.75F
#KAHLOTUS       N/A         50  42  74  W13     29.77R
#KENNEWICK 3S   N/A         53  40  61  SW2     29.79S
#PATERSON       N/A         53  39  59  N8      29.79S
#SAGEMOOR 2W    N/A         51  42  71  SW6     29.65S
#TOUCHET 2S     N/A         54  42  64  W7      29.79R
#WEST PASCO     N/A         56  40  55  S1      29.77S
$$

WAZ029-240510-
FOOTHILLS OF THE BLUES...WASHINGTON

CITY            SKY/WX      TMP DP  RH  WIND    PRES   REMARKS
WALLA WALLA AP  CLOUDY      53  46  77  SW3     29.82R
#CLYDE 6NW      N/A         50  43  77  SW5     29.78R
#DAYTON SCHOOL  N/A         47  37  68  CALM    29.84S
#LOWDEN 2SE     N/A         52  47  83  CALM    29.78R
#PLEASANT VIEW 1N/A         46  42  86  SW3     29.82S
#PRESCOTT       N/A         51  45  80  CALM    29.79S
#WHITMAN COLLEGEN/A         51  46  83  CALM    29.85R
#WAITSBURG 5S   N/A         46  42  86  CALM    29.90R
#WAITSBURG 8N   N/A          0  N/A N/A S6      29.81S
#WALLA WALLA 5E N/A         51  45  80  SW13    N/A
#WHITMAN MISSIONN/A         53  47  80  CALM    29.82R
$$

WAZ030-240510-
BLUE MOUNTAINS...WASHINGTON

CITY            SKY/WX      TMP DP  RH  WIND    PRES   REMARKS
#DIXIE 5SE      N/A         44  38  79  S6      29.74S
$$

ORZ009-041-WAZ024-240510-
COLUMBIA RIVER GORGE

CITY            SKY/WX      TMP DP  RH  WIND    PRES   REMARKS
HOOD RIVER AP   MOCLDY      46  43  89  CALM    29.85F
THE DALLES AP   MOCLDY      51  43  74  NW16    29.82F
#ARLINGTON AIRPON/A         49  40  71  W6      29.82S
#CELILO DOT     N/A         53  37  54  SW7     N/A
#LYLE           N/A         51  44  77  S1      29.84F
#MOSIER 1S      N/A         46  35  65  CALM    29.82S
#MURDOCK        N/A         52  43  71  NW12    29.80S
#RUFUS DOT      N/A         55  39  55  W10     N/A
#SMITHVILLE     N/A         51  43  74  NW12    29.77F

$$

ORZ510-240510-
NORTH CENTRAL OREGON

CITY            SKY/WX      TMP DP  RH  WIND    PRES   REMARKS
#ANTELOPE       N/A         46  35  65  W2      29.68F
#CHENOWITH 1W   N/A         42  41  96  NW14    N/A    WCI 35
#COW CYN RST AREN/A         44  34  68  W3      N/A
#DUFUR          N/A         45  40  82  E1      29.78S
#DUFUR 9E       N/A         42  38  86  CALM    29.87F
#GRASS VALLEY 1SN/A         45  37  73  SW12    29.96F WCI 39
#KENT DOT       N/A         44  30  58  N10     N/A
#MAUPIN SCHOOL  N/A         51  38  61  SW1     29.88S
#SHANIKO 5WSW   N/A         42  29  60  N8      N/A
#SHANIKO 4NW    N/A         41  34  76  W5      29.81S
#TYGH VALLEY 2NEN/A         49  39  68  N1      29.80F
#WAPANITIA AIRPON/A         46  37  71  W9      29.82F
#WASCO 5NE      N/A         46  39  76  CALM    29.81F
$$

ORZ511-240510-
CENTRAL OREGON

CITY            SKY/WX      TMP DP  RH  WIND    PRES   REMARKS
BEND AIRPORT    CLOUDY      45  32  60  SW8     29.82F
MADRAS AIRPORT  CLOUDY      45  34  65  SW8     29.84F
PRINEVILLE AP   CLOUDY      45  36  70  W3      29.82F
REDMOND AIRPORT PTCLDY      45  32  60  N6      29.82F
#ASHWOOD SCHOOL N/A         48  35  60  SW1     29.80S
#BEND 1SW       N/A         42  34  73  S2      N/A
#BEND-AWBREY    N/A         44  35  70  S3      29.81F
#BEND-KIM LN    N/A         43  36  76  CALM    29.76F
#CULVER         N/A         44  33  65  SW1     29.74F
#CULVER 8W      N/A         45  34  65  SW3     29.85F
#LAKE BILLY CHINN/A         46  N/A N/A W10     29.91F
#POWELL BUTTE   N/A         42  36  79  CALM    29.80F
#PRINEVILLE     N/A         45  35  68  CALM    29.90F
#PRINEVILLE 3N  N/A         46  37  71  CALM    29.80F
#WARM SPRINGS   N/A         51  37  59  CALM    29.79F

$$


ORZ509-240510-
EAST SLOPES OF OREGON CASCADES

CITY            SKY/WX      TMP DP  RH  WIND    PRES   REMARKS
SISTERS AWOS    N/A         43  34  70  W9      29.80F
#BLUE BOX PASS  N/A         35  N/A N/A NW3     N/A
#CAMP SHERMAN   N/A         40  34  79  CALM    29.91F
#LA PINE 4NW    N/A         40  33  76  CALM    29.87F
#LAVA BUTTE DOT N/A         39  31  73  CALM    N/A
#SISTERS 3N     N/A         42  30  62  W3      29.85S
#TUMALO 3W      N/A         41  34  76  N1      29.69F
#WANOGA BUTTE D N/A         31  30  96  W8      N/A

$$

ORZ044-240510-
LOWER COLUMBIA BASIN...OREGON

CITY            SKY/WX      TMP DP  RH  WIND    PRES   REMARKS
HERMISTON       MOCLDY      53  41  64  W7      29.82R
#BOARDMAN SCHOOLN/A         54  41  61  SW7     29.81S
#BOARDMAN 8SW   N/A         50  42  74  SW3     29.81S
#ECHO 8SW       N/A         51  41  68  CALM    29.84R
#I-84 EX 198 DOTN/A         50  44  80  E8      N/A
#IONE SCHOOL    N/A         50  31  48  SW7     29.83S
$$

ORZ507-240510-
NORTHERN FOOTHILLS OF THE BLUES

CITY            SKY/WX      TMP DP  RH  WIND    PRES   REMARKS
PENDLETON AIRPT MOCLDY      48  45  89  S9      29.83R
#ADAMS 3WNW     N/A         47  43  86  SW3     29.83R
#ATHENA         N/A         49  43  80  SW1     29.85R
#CAYUSE         N/A         48  45  89  SW1     29.82R
#HELIX SCHOOL   N/A         48  44  86  SW2     29.82R
#HELIX 3N       N/A         46  42  86  SW6     29.80R
#HOLDMAN 5SE    N/A         49  43  80  SW3     29.82S
#HOLDMAN 6E     N/A         46  45  96  SW6     29.62R
#M-F FERNDALE   N/A         52  42  69  CALM    29.80R
#M-F GROVE ELEM N/A         52  44  74  S1      29.81R
#M-FREEWATER 5SEN/A         49  44  83  CALM    29.83R
#PENDLETON DNTN N/A         51  38  61  SE2     29.80S
#PDT AQUATIC CTRN/A         50  41  71  SE3     29.85S
#PDT SUNRIDGE   N/A         48  43  83  CALM    29.85R
#PENDLETON 7NW  N/A         50  43  77  W2      32.29S
#PILOT ROCK 1S  N/A         46  39  76  SE6     29.84S
#PILOT ROCK     N/A         46  40  79  SW3     29.85S
#TUTUILLA       N/A         47  42  83  CALM    29.83R
#UMAPINE 2E     N/A         53  46  77  SW6     29.79R
#WESTON SCHOOL  N/A         49  41  74  NW5     29.84R

$$

ORZ508-240510-
SOUTHERN FOOTHILLS OF THE BLUES

CITY            SKY/WX      TMP DP  RH  WIND    PRES   REMARKS
LEXINGTON       CLOUDY      48  41  77  W7      29.86S
#AJAX           N/A         44  33  65  CALM    29.98F
#CONDON SCHOOL  N/A          0  -78  1  CALM    29.79S
#CONDON 5W      N/A         41  35  79  W7      29.78F
#HEPPNER EOC    N/A         46  42  86  CALM    29.75S
#LEXINGTON 2SE  N/A         49  43  80  CALM    29.78S
#MIKKALO        N/A         45  37  73  CALM    29.93S
#OLEX 4N        N/A         48  41  77  SW7     29.81F
#RUGGS 5NE      N/A         43  42  96  CALM    30.01S
#RUGGS 2SW      N/A         44  41  89  CALM    29.83S

$$

ORZ502-503-240510-
BLUE MOUNTAINS

CITY            SKY/WX      TMP DP  RH  WIND    PRES   REMARKS
MEACHAM         MOCLDY      38  34  85  CALM    29.83R
#BATTLE MTN DOT N/A         38  37  96  NE1     N/A
#HARDMAN 10S    N/A         41  38  89  CALM    29.93S
#LADD CYN SMT   N/A         43  38  82  W6      N/A
#LADD CREEK ODOTN/A         44  40  86  CALM    N/A
#LONG CREEK HS  N/A         41  40  96  CALM    N/A
#N POWDER DOT   N/A         45  39  79  N8      N/A
#PIKES PEAK     N/A         43  37  79  N17     27.99S WCI 35
#TOLLGATE       N/A         35  33  92  S2      29.70R
#TROY SCHOOL    N/A         50  45  83  CALM    29.66R
#UKIAH          N/A         42  38  86  CALM    29.72R
#WESTON 4E      N/A         42  40  93  S2      29.80R
$$

ORZ505-240510-
JOHN DAY BASIN

CITY            SKY/WX      TMP DP  RH  WIND    PRES   REMARKS
JOHN DAY        LGT DRIZZLE 46  38  73  CALM    29.83R
#JOHN DAY KJDY  N/A         48  N/A N/A SW2     28.68R
#ANTELOPE 9ESE  N/A         52  38  59  W2      N/A
#DAYVILLE SCHOOLN/A         48  37  65  CALM    29.80S
#MITCHELL       N/A         44  43  96  CALM    29.99F
#MITCHELL 8NW   N/A         44  34  68  W2      29.83F
#MONUMENT HS    N/A         51  40  66  CALM    29.79R
#MT. VERNON 5SE N/A         44  36  73  CALM    29.78R
#SPRAY SCHOOL   N/A         50  N/A N/A CALM    N/A
$$

ORZ506-240510-
OCHOCO AND JOHN DAY HIGHLANDS

CITY            SKY/WX      TMP DP  RH  WIND    PRES   REMARKS
#HORSE RIDGE DO N/A         40  33  76  SE1     N/A
#PAULINA SCHOOL N/A         46  34  63  SW2     N/A
#PINE MTN OBS   N/A         32  29  89  S7      N/A
#PRAIRIE CITY   N/A         47  34  60  CALM    29.95R
#SENECA 9NW     N/A         43  32  65  CALM    29.77R
$$

ORZ049-240510-
GRANDE RONDE VALLEY

CITY            SKY/WX      TMP DP  RH  WIND    PRES   REMARKS
LA GRANDE       CLOUDY      45  37  73  NW5     29.82R
#COVE SCHOOL    N/A         44  42  93  CALM    29.85R
#COVE 6NW       N/A         46  43  89  W1      29.82R
#ELGIN 3N       N/A         43  39  86  W2      29.83R
#ELGIN 1E       N/A         46  40  79  CALM    N/A
#IMBLER SCHOOL  N/A         44  40  86  W10     29.80R
#ISLAND CITY 4N N/A         48  45  89  CALM    29.86S
#UNION 1S       N/A         47  41  79  W2      29.82R
$$

ORZ050-240510-
WALLOWA COUNTY

CITY            SKY/WX      TMP DP  RH  WIND    PRES   REMARKS
JOSEPH AIRPORT  CLOUDY      39  39  100 CALM    29.83R
#IMNAHA SCHOOL  N/A         46  42  86  CALM    29.83S
#IMNAHA 10S     N/A         41  39  93  S2      29.82S
#JOSEPH 3N      N/A         38  32  79  CALM    29.86R
#JOSEPH 3W      N/A         36  36  100 CALM    29.68S
#LOSTINE        N/A         40  38  92  CALM    29.63R
#LOSTINE 3SE    N/A         40  38  92  CALM    29.85S
#MT HOWARD 8000 N/A         28  23  81  SW6     29.79R
#PROMISE 1S     N/A         39  37  92  CALM    29.93S
#WALLOWA SCHOOL N/A         43  40  89  CALM    29.80R



$$



USA.gov is the U.S. government's official web portal to all federal, state and local government web resources and services.